• In Deutschland
  • Länderverzeichnis
  • Für 7 Tage
  • Wassertemperatur
  • Satellitenkarten
  • Wetterkarte
  • Widgets
  • user-avatar
    Anmelden

    Stündliche Wetter Wien

    Heute, 26 April, Mittwoch

    Zeit Temperatur Niederschläge Wind Luftdruck Luftfeuchtigkeit
    00:00 +12°C° 0 mm 2 m/S 736 mmHg 90%
    01:00 +10°C° 0 mm 2 m/S 736 mmHg 91%
    02:00 +10°C° 0 mm 2 m/S 736 mmHg 92%
    03:00 +9°C° 0 mm 2 m/S 736 mmHg 92%
    04:00 +9°C° 0 mm 2 m/S 736 mmHg 93%
    05:00 +9°C° 0 mm 2 m/S 736 mmHg 91%
    06:00 +10°C° 0 mm 3 m/S 736 mmHg 89%
    07:00 +11°C° 0 mm 3 m/S 736 mmHg 87%
    08:00 +12°C° 0 mm 3 m/S 736 mmHg 82%
    09:00 +13°C° 0 mm 4 m/S 736 mmHg 78%
    10:00 +14°C° 0 mm 4 m/S 736 mmHg 73%
    11:00 +14°C° 0 mm 4 m/S 736 mmHg 70%
    12:00 +15°C° 0 mm 5 m/S 736 mmHg 68%
    13:00 +16°C° 0 mm 5 m/S 736 mmHg 65%
    14:00 +16°C° 0 mm 5 m/S 736 mmHg 66%
    15:00 +16°C° 0 mm 6 m/S 736 mmHg 67%
    16:00 +16°C° 0 mm 6 m/S 736 mmHg 67%
    17:00 +15°C° 0 mm 6 m/S 736 mmHg 70%
    18:00 +14°C° 0 mm 5 m/S 736 mmHg 73%
    19:00 +12°C° 0 mm 5 m/S 736 mmHg 77%
    20:00 +10°C° 0,1 mm 5 m/S 736 mmHg 80%
    21:00 +10°C° 0,1 mm 4 m/S 737 mmHg 84%
    22:00 +7°C° 0,1 mm 4 m/S 737 mmHg 87%
    23:00 +7°C° 0,2 mm 4 m/S 737 mmHg 88%

    Morgen, 27 April, Donnerstag

    Zeit Temperatur Niederschläge Wind Luftdruck Luftfeuchtigkeit
    00:00 +7°C° 0,2 mm 4 m/S 737 mmHg 88%
    01:00 +6°C° 0,2 mm 4 m/S 738 mmHg 89%
    02:00 +6°C° 0,6 mm 4 m/S 738 mmHg 90%
    03:00 +6°C° 0,6 mm 4 m/S 738 mmHg 91%
    04:00 +5°C° 0,6 mm 4 m/S 738 mmHg 92%
    05:00 +5°C° 0,7 mm 4 m/S 738 mmHg 92%
    06:00 +5°C° 0,7 mm 4 m/S 739 mmHg 91%
    07:00 +5°C° 0,7 mm 4 m/S 739 mmHg 91%
    08:00 +7°C° 0,7 mm 3 m/S 739 mmHg 90%
    09:00 +7°C° 0,7 mm 3 m/S 740 mmHg 89%
    10:00 +8°C° 0,7 mm 3 m/S 740 mmHg 88%
    11:00 +8°C° 0,6 mm 3 m/S 740 mmHg 87%
    12:00 +8°C° 0,6 mm 3 m/S 740 mmHg 87%
    13:00 +9°C° 0,6 mm 2 m/S 740 mmHg 87%
    14:00 +9°C° 0,1 mm 2 m/S 739 mmHg 85%
    15:00 +10°C° 0,1 mm 3 m/S 739 mmHg 84%
    16:00 +10°C° 0,1 mm 3 m/S 739 mmHg 82%
    17:00 +10°C° 0,1 mm 2 m/S 738 mmHg 85%
    18:00 +9°C° 0,1 mm 2 m/S 738 mmHg 88%
    19:00 +8°C° 0,1 mm 2 m/S 738 mmHg 91%
    20:00 +8°C° 0,4 mm 2 m/S 738 mmHg 92%
    21:00 +8°C° 0,4 mm 2 m/S 737 mmHg 94%
    22:00 +8°C° 0,4 mm 2 m/S 737 mmHg 95%
    23:00 +7°C° 0,5 mm 2 m/S 737 mmHg 95%

    übermorgen, 28 April, Freitag

    Zeit Temperatur Niederschläge Wind Luftdruck Luftfeuchtigkeit
    00:00 +7°C° 0,5 mm 2 m/S 736 mmHg 96%
    01:00 +7°C° 0,5 mm 2 m/S 736 mmHg 96%
    02:00 +7°C° 0,4 mm 2 m/S 735 mmHg 96%
    03:00 +7°C° 0,4 mm 2 m/S 735 mmHg 96%
    04:00 +7°C° 0,4 mm 2 m/S 735 mmHg 96%
    05:00 +7°C° 0,1 mm 2 m/S 735 mmHg 95%
    06:00 +7°C° 0,1 mm 3 m/S 735 mmHg 94%
    07:00 +7°C° 0,1 mm 3 m/S 734 mmHg 93%
    08:00 +8°C° 0,2 mm 3 m/S 735 mmHg 91%
    09:00 +8°C° 0,2 mm 2 m/S 735 mmHg 89%
    10:00 +9°C° 0,2 mm 2 m/S 735 mmHg 88%
    11:00 +9°C° 0,3 mm 3 m/S 735 mmHg 87%
    12:00 +9°C° 0,3 mm 3 m/S 735 mmHg 87%
    13:00 +8°C° 0,3 mm 4 m/S 735 mmHg 87%
    14:00 +9°C° 0,1 mm 5 m/S 735 mmHg 84%
    15:00 +9°C° 0,1 mm 5 m/S 735 mmHg 81%
    16:00 +9°C° 0,1 mm 5 m/S 735 mmHg 78%
    17:00 +8°C° 0,1 mm 6 m/S 736 mmHg 79%
    18:00 +7°C° 0,1 mm 6 m/S 737 mmHg 81%
    19:00 +6°C° 0,1 mm 7 m/S 737 mmHg 83%
    20:00 +5°C° 0 mm 7 m/S 738 mmHg 83%
    21:00 +5°C° 0 mm 7 m/S 739 mmHg 84%
    22:00 +5°C° 0 mm 7 m/S 739 mmHg 85%
    23:00 +4°C° 0 mm 7 m/S 740 mmHg 84%

    29 April, Samstag

    Zeit Temperatur Niederschläge Wind Luftdruck Luftfeuchtigkeit
    00:00 +4°C° 0 mm 7 m/S 740 mmHg 84%
    01:00 +4°C° 0 mm 7 m/S 741 mmHg 84%
    02:00 +4°C° 0 mm 6 m/S 741 mmHg 84%
    03:00 +4°C° 0 mm 6 m/S 741 mmHg 84%
    04:00 +3°C° 0 mm 5 m/S 742 mmHg 85%
    05:00 +4°C° 0 mm 6 m/S 742 mmHg 82%
    06:00 +5°C° 0 mm 6 m/S 742 mmHg 79%
    07:00 +5°C° 0 mm 6 m/S 743 mmHg 76%
    08:00 +8°C° 0 mm 6 m/S 743 mmHg 71%
    09:00 +9°C° 0 mm 6 m/S 743 mmHg 67%
    10:00 +10°C° 0 mm 5 m/S 744 mmHg 62%
    11:00 +12°C° 0,1 mm 5 m/S 743 mmHg 59%
    12:00 +13°C° 0,1 mm 4 m/S 743 mmHg 57%
    13:00 +14°C° 0,1 mm 4 m/S 743 mmHg 54%
    14:00 +14°C° 0,2 mm 3 m/S 743 mmHg 54%
    15:00 +14°C° 0,2 mm 3 m/S 743 mmHg 54%
    16:00 +15°C° 0,2 mm 2 m/S 743 mmHg 55%
    17:00 +12°C° 0,1 mm 2 m/S 743 mmHg 65%
    18:00 +10°C° 0,1 mm 1 m/S 743 mmHg 75%
    19:00 +6°C° 0,1 mm 0 m/S 744 mmHg 85%
    20:00 +7°C° 0 mm 1 m/S 744 mmHg 85%
    21:00 +6°C° 0 mm 1 m/S 744 mmHg 85%
    22:00 +6°C° 0 mm 1 m/S 744 mmHg 85%
    23:00 +6°C° 0 mm 1 m/S 744 mmHg 85%

    30 April, Sonntag

    Zeit Temperatur Niederschläge Wind Luftdruck Luftfeuchtigkeit
    00:00 +6°C° 0 mm 1 m/S 744 mmHg 86%
    01:00 +5°C° 0 mm 2 m/S 744 mmHg 86%
    02:00 +5°C° 0 mm 2 m/S 744 mmHg 87%
    03:00 +5°C° 0 mm 2 m/S 744 mmHg 88%
    04:00 +5°C° 0 mm 2 m/S 744 mmHg 88%
    05:00 +5°C° 0 mm 3 m/S 744 mmHg 84%
    06:00 +8°C° 0 mm 3 m/S 745 mmHg 81%
    07:00 +8°C° 0 mm 4 m/S 745 mmHg 77%
    08:00 +11°C° 0 mm 4 m/S 745 mmHg 70%
    09:00 +13°C° 0 mm 5 m/S 745 mmHg 64%
    10:00 +15°C° 0 mm 6 m/S 745 mmHg 57%
    11:00 +15°C° 0 mm 6 m/S 744 mmHg 55%
    12:00 +16°C° 0 mm 6 m/S 744 mmHg 54%
    13:00 +17°C° 0 mm 6 m/S 743 mmHg 52%
    14:00 +17°C° 0 mm 6 m/S 743 mmHg 54%
    15:00 +17°C° 0 mm 6 m/S 742 mmHg 55%
    16:00 +16°C° 0 mm 6 m/S 742 mmHg 56%
    17:00 +15°C° 0 mm 5 m/S 742 mmHg 62%
    18:00 +13°C° 0 mm 5 m/S 742 mmHg 69%
    19:00 +12°C° 0 mm 4 m/S 742 mmHg 75%
    20:00 +11°C° 0 mm 4 m/S 742 mmHg 78%
    21:00 +10°C° 0 mm 4 m/S 742 mmHg 80%
    22:00 +8°C° 0 mm 4 m/S 742 mmHg 83%
    23:00 +8°C° 0 mm 4 m/S 742 mmHg 84%

    1 Mai, Montag

    Zeit Temperatur Niederschläge Wind Luftdruck Luftfeuchtigkeit
    00:00 +7°C° 0 mm 4 m/S 742 mmHg 86%
    01:00 +7°C° 0 mm 4 m/S 741 mmHg 88%
    02:00 +7°C° 0 mm 4 m/S 741 mmHg 89%
    03:00 +7°C° 0 mm 4 m/S 741 mmHg 89%
    04:00 +6°C° 0 mm 4 m/S 741 mmHg 89%
    05:00 +8°C° 0 mm 4 m/S 741 mmHg 86%
    06:00 +10°C° 0 mm 4 m/S 741 mmHg 82%
    07:00 +11°C° 0 mm 4 m/S 741 mmHg 79%
    08:00 +13°C° 0 mm 4 m/S 741 mmHg 73%
    09:00 +15°C° 0 mm 4 m/S 741 mmHg 67%
    10:00 +18°C° 0 mm 4 m/S 741 mmHg 61%
    11:00 +17°C° 0,1 mm 5 m/S 742 mmHg 61%
    12:00 +17°C° 0,1 mm 5 m/S 742 mmHg 62%
    13:00 +17°C° 0,1 mm 6 m/S 742 mmHg 62%
    14:00 +15°C° 0,1 mm 7 m/S 743 mmHg 65%
    15:00 +13°C° 0,1 mm 8 m/S 743 mmHg 68%
    16:00 +11°C° 0,1 mm 9 m/S 744 mmHg 70%
    17:00 +10°C° 0,3 mm 9 m/S 744 mmHg 73%
    18:00 +9°C° 0,3 mm 8 m/S 745 mmHg 75%
    19:00 +8°C° 0,3 mm 7 m/S 745 mmHg 77%
    20:00 +7°C° 1,1 mm 6 m/S 746 mmHg 81%
    21:00 +7°C° 1,1 mm 5 m/S 746 mmHg 85%
    22:00 +6°C° 1,1 mm 4 m/S 747 mmHg 89%
    23:00 +6°C° 0 mm 4 m/S 747 mmHg 89%
    Mehr zeigen